Location: Alto Pass Reservoir
(37.5801°N, 89.3084°W)
Time: 13:30:41
(UTC+00:00)

NEOSSAT - Pass Details

Date: 26 September 2022
Orbit: 767 x 784 km, 98.4° (Epoch: 26 November)

Event Time Altitude Azimuth Distance (km) Brightness Sun altitude
Rises 10:46:49 0° 126° (SE) 3,232 ? -13.0°
Reaches altitude 10° 10:49:42 10° 110° (ESE) 2,312 ? -12.4°
Maximum altitude 10:53:15 20° 65° (ENE) 1,754 ? -11.7°
Drops below altitude 10° 10:56:50 10° 21° (NNE) 2,329 ? -11.0°
Sets 10:59:44 0° 4° (N) 3,264 ? -10.5°
